Regional Weather Roundup
Issued by NWS State College, PA

Home | Current Version | Previous Version | Graphics & Text | Print | Product List | Glossary On
Versions: 1 2 3 4 5 6 7 8 9 10 11 12 13 14 15 16 17 18 19 20 21 22 23 24 25 26 27 28 29 30 31 32 33 34 35 36 37 38 39 40 41 42 43 44 45 46 47 48 49 50
000
ASUS41 KCTP 191203
RWRCTP

REGIONAL WEATHER ROUNDUP
NATIONAL WEATHER SERVICE STATE COLLEGE PA
800 AM EDT SAT APR 19 2014

Note: "fair" indicates few or no clouds below 12,000 feet with no
significant weather and/or obstructions to visibility.

* = STATION THAT DOES NOT REPORT PRECIPITATION /E.G. RAIN...SNOW...ETC/
    THUNDER OR FOG.

PAZ002>004-007>009-013>016-020>023-029>032-191300-
WESTERN PENNSYLVANIA

CITY           SKY/WX    TMP DP  RH WIND       PRES   REMARKS
ERIE           SUNNY     36  30  79 NE8       30.41R
MEADVILLE      SUNNY     36  29  75 N6        30.35R
FRANKLIN*      SUNNY     37  32  81 N3        30.37R
NEW CASTLE     FAIR      41  37  85 N6        30.38R
BEAVER COUNTY  SUNNY     41  37  87 N5        30.35R
BUTLER*        MOSUNNY   41  36  81 CALM      30.36R
PITTSBURGH INT CLOUDY    46  39  76 N5        30.34R
PITTSBURGH     MOSUNNY   48  39  71 N6        30.32R
INDIANA*       MOSUNNY   43  37  81 CALM      30.34R
LATROBE        MOSUNNY   43  39  87 N3        30.33R
WASHINGTON CO* NOT AVBL
$$

PAZ004>006-010>012-017>019-024>028-033>037-041-042-045-046-049>053-191300-
CENTRAL PENNSYLVANIA

CITY           SKY/WX    TMP DP  RH WIND       PRES   REMARKS
BRADFORD       SUNNY     35  30  82 VRB3      30.31R
DUBOIS         MOSUNNY   42  35  76 N7        30.32R
CLEARFIELD     MOSUNNY   38  35  89 CALM      30.32R
JOHNSTOWN      MOSUNNY   44  36  73 NE7       30.29R
ALTOONA        MOSUNNY   44  38  79 CALM      30.31R
STATE COLLEGE  SUNNY     43  34  70 CALM      30.32R
WILLIAMSPORT   MOSUNNY   38  33  82 CALM      30.33R
SELINSGROVE    MOSUNNY   40  36  86 CALM      30.32R FOG
FT INDIANTOWN  NOT AVBL
CAPITAL CITY   MOSUNNY   44  37  76 CALM      30.31R
HARRISBURG     MOSUNNY   46  38  73 NW10      30.29R
YORK           MOSUNNY   42  38  85 CALM      30.29R
$$

PAZ038>040-043-044-047-048-054-055-060>062-067>071-191300-
EASTERN PENNSYLVANIA

CITY           SKY/WX    TMP DP  RH WIND       PRES   REMARKS
SCRANTON       MOSUNNY   40  34  79 VRB3      30.29R
MOUNT POCONO   MOSUNNY   42  34  73 NW13      30.24R
ALLENTOWN      MOSUNNY   44  37  76 SW5       30.29R
QUAKERTOWN*    MOSUNNY   41  36  81 CALM      30.28R
READING        MOSUNNY   44  36  73 N3        30.29R
LANCASTER      MOSUNNY   42  35  76 CALM      30.29R
COATESVILLE    MOSUNNY   46  36  66 NW8       30.27S
POTTSTOWN      MOSUNNY   46  37  71 CALM      30.29R
BLUE BELL      MOSUNNY   48  36  61 CALM      30.27R
DOYLESTOWN     MOSUNNY   45  36  70 NW3       30.27R
WILLOW GROVE   NOT AVBL
NORTH PHILA    MOSUNNY   47  38  71 N3        30.29R
PHILADELPHIA   PTSUNNY   46  38  73 SW3       30.29R
$$



USA.gov is the U.S. government's official web portal to all federal, state and local government web resources and services.